Antwerp, Belgium

2:12 PM CEST on August 19, 2017 (GMT +0200)
Deurne

Weather History for EBAW - February, 2013

Change the Weather History Date:

Monday, February 4, 2013

  Actual Average Record
Temperature  
Mean Temperature 45 °F -  
Max Temperature 50 °F 45 °F 64 °F (2004)
Min Temperature 40 °F 34 °F 5 °F (2012)
Degree Days  
Heating Degree Days 20    
Moisture  
Dew Point 40 °F    
Average Humidity 77    
Maximum Humidity 93    
Minimum Humidity 47    
Precipitation  
Precipitation 0.04 in - - ()
Sea Level Pressure  
Sea Level Pressure 29.85 in    
Wind  
Wind Speed 11 mph ()    
Max Wind Speed 20 mph    
Max Gust Speed -    
Visibility 6.1 miles    
Events Rain    
Averages and records for this station are not official NWS values.
T = Trace of Precipitation, MM = Missing Value Source: Averaged Metar Reports

Daily Weather History Graph

Daily Weather History Graph

Search for Another Location

Airport or City:

Trip Planner

Search our weather history database for the weather conditions in past years. The results will help you decide how hot, cold, wet, or windy it might be!

Date:

Astronomy

Feb. 04, 2013 Rise Set
Actual Time 8:14 AM CET 5:38 PM CET
Civil Twilight 7:39 AM CET 6:13 PM CET
Nautical Twilight 6:59 AM CET 6:53 PM CET
Astronomical Twilight 6:20 AM CET 7:32 PM CET
Moon 2:39 AM CET (2/4) 11:40 AM CET (2/4)
Length of Visible Light 10h 34m
Length of Day
9h 23m
Last Quarter, 40% of the Moon is Illuminated
Feb 4
Last Quarter
Feb 10
New
Feb 17
First Quarter
Feb 25
Full
Mar 4
Last Quarter

Hourly Weather History & Observations

Time (CET) Temp. Windchill Dew Point Humidity Pressure Visibility Wind Dir Wind Speed Gust Speed Precip Events Conditions
12:20 AM 44.6 °F 39.2 °F 42.8 °F 93% 29.86 in 3.1 mi WSW 10.4 mph - N/A   Overcast
12:50 AM 44.6 °F 39.2 °F 42.8 °F 93% 29.86 in 3.1 mi WSW 10.4 mph - N/A   Overcast
1:00 AM 45 °F - 43 °F 88% 29.89 in 3 mi WSW 11.2 mph - -   Mist
1:20 AM 44.6 °F 39.7 °F 42.8 °F 93% 29.86 in - SW 9.2 mph - N/A   Overcast
1:50 AM 44.6 °F 39.7 °F 42.8 °F 93% 29.86 in - SW 9.2 mph - N/A   Overcast
2:20 AM 44.6 °F 40.2 °F 42.8 °F 93% 29.86 in - SW 8.1 mph - N/A   Overcast
2:50 AM 46.4 °F 42.4 °F 42.8 °F 87% 29.86 in 3.7 mi SW 8.1 mph - N/A   Overcast
3:20 AM 46.4 °F 41.9 °F 44.6 °F 93% 29.83 in 4.3 mi WSW 9.2 mph - N/A   Overcast
3:50 AM 46.4 °F 41.9 °F 44.6 °F 93% 29.83 in 5.0 mi WSW 9.2 mph - N/A   Overcast
4:00 AM 47 °F - 44 °F 86% 29.84 in - WSW 8.9 mph - -   Overcast
4:20 AM 48.2 °F - 44.6 °F 87% 29.83 in 6.2 mi West 13.8 mph - N/A   Overcast
4:50 AM 48.2 °F - 44.6 °F 87% 29.83 in 6.2 mi West 15.0 mph - N/A   Overcast
5:20 AM 48.2 °F - 44.6 °F 87% 29.83 in 6.2 mi West 12.7 mph - N/A   Mostly Cloudy
5:50 AM 48.2 °F - 44.6 °F 87% 29.80 in 6.2 mi WSW 10.4 mph - N/A   Overcast
6:20 AM 48.2 °F - 44.6 °F 87% 29.80 in 6.2 mi WSW 13.8 mph - N/A   Mostly Cloudy
6:50 AM 48.2 °F - 44.6 °F 87% 29.83 in 6.2 mi West 12.7 mph - N/A   Mostly Cloudy
7:00 AM 48 °F - 44 °F 81% 29.83 in 11 mi West 13.4 mph - -   Overcast
7:20 AM 48.2 °F - 44.6 °F 87% 29.80 in 6.2 mi West 13.8 mph - N/A   Mostly Cloudy
9:20 AM 46.4 °F 40.1 °F 44.6 °F 93% 29.83 in 6.2 mi West 15.0 mph - N/A   Mostly Cloudy
9:50 AM 48.2 °F - 44.6 °F 87% 29.83 in 6.2 mi West 15.0 mph - N/A   Mostly Cloudy
10:00 AM 48 °F - 45 °F 87% 29.84 in 7 mi West 15.7 mph - - Rain Light Rain
10:20 AM 48.2 °F - 44.6 °F 87% 29.83 in 6.2 mi West 15.0 mph - N/A   Mostly Cloudy
11:50 AM 50.0 °F - 46.4 °F 87% 29.86 in 6.2 mi West 16.1 mph - N/A   Mostly Cloudy
12:20 PM 50.0 °F - 46.4 °F 87% 29.86 in 6.2 mi West 12.7 mph - N/A   Mostly Cloudy
12:50 PM 50.0 °F - 46.4 °F 87% 29.86 in 6.2 mi West 12.7 mph - N/A Rain Light Rain Showers
1:00 PM 50 °F - 46 °F 80% 29.87 in 6 mi West 13.4 mph - - Rain Light Rain Showers
1:20 PM 48.2 °F - 46.4 °F 93% 29.86 in 6.2 mi West 13.8 mph - N/A   Mostly Cloudy
1:50 PM 48.2 °F - 44.6 °F 87% 29.86 in 6.2 mi WNW 17.3 mph - N/A   Mostly Cloudy
2:20 PM 48.2 °F - 37.4 °F 66% 29.86 in 6.2 mi WNW 19.6 mph - N/A   Partly Cloudy
2:50 PM 48.2 °F - 35.6 °F 62% 29.89 in - WNW 18.4 mph - N/A   Clear
3:20 PM 48.2 °F - 35.6 °F 62% 29.89 in - West 15.0 mph - N/A   Clear
3:50 PM 48.2 °F - 35.6 °F 62% 29.86 in 6.2 mi WNW 17.3 mph - N/A   Partly Cloudy
4:00 PM 49 °F - 35 °F 47% 29.88 in 9 mi WNW 15.7 mph - -   Partly Cloudy
4:20 PM 48.2 °F - 33.8 °F 58% 29.89 in 6.2 mi West 15.0 mph - N/A   Partly Cloudy
4:50 PM 48.2 °F - 33.8 °F 58% 29.89 in - West 16.1 mph - N/A   Clear
5:20 PM 48.2 °F - 32.0 °F 54% 29.89 in - West 11.5 mph - N/A   Clear
5:50 PM 48.2 °F - 32.0 °F 54% 29.89 in - West 11.5 mph - N/A   Clear
6:20 PM 48.2 °F - 33.8 °F 58% 29.89 in - West 11.5 mph - N/A   Clear
6:50 PM 46.4 °F 41.1 °F 33.8 °F 62% 29.89 in - West 11.5 mph - N/A   Clear
7:00 PM 47 °F - 34 °F 50% 29.90 in 10 mi West 11.2 mph - -   Partly Cloudy
7:20 PM 46.4 °F 41.1 °F 35.6 °F 66% 29.89 in - West 11.5 mph - N/A   Clear
7:50 PM 46.4 °F 41.5 °F 35.6 °F 66% 29.89 in 6.2 mi West 10.4 mph - N/A Rain Light Rain
8:20 PM 46.4 °F 41.5 °F 37.4 °F 71% 29.86 in - WSW 10.4 mph - N/A   Clear
8:50 PM 46.4 °F 41.1 °F 37.4 °F 71% 29.86 in - WSW 11.5 mph - N/A   Clear
9:20 PM 46.4 °F 41.1 °F 37.4 °F 71% 29.86 in - WSW 11.5 mph - N/A   Clear
9:50 PM 46.4 °F 40.7 °F 37.4 °F 71% 29.86 in - WSW 12.7 mph - N/A   Clear
10:00 PM 46 °F - 37 °F 63% 29.87 in 7 mi WSW 13.4 mph - -   Partly Cloudy
10:20 PM 46.4 °F 40.1 °F 37.4 °F 71% 29.83 in - WSW 15.0 mph - N/A   Clear
10:50 PM 44.6 °F 38.4 °F 37.4 °F 76% 29.83 in - WSW 12.7 mph - N/A   Clear
11:20 PM 44.6 °F 38.1 °F 37.4 °F 76% 29.83 in - WSW 13.8 mph - N/A   Clear
11:50 PM 44.6 °F 38.1 °F 35.6 °F 71% 29.80 in - WSW 13.8 mph - N/A   Clear